Regional Weather Roundup
Issued by NWS State College, PA

Home | Current Version | Previous Version | Text Only | Print | Product List | Glossary On
Versions: 1 2 3 4 5 6 7 8 9 10 11 12 13 14 15 16 17 18 19 20 21 22 23 24 25 26 27 28 29 30 31 32 33 34 35 36 37 38 39 40 41 42 43 44 45 46 47 48 49 50
000
ASUS41 KCTP 181603
RWRCTP

REGIONAL WEATHER ROUNDUP
NATIONAL WEATHER SERVICE STATE COLLEGE PA
1200 PM EDT SAT APR 18 2015

Note: "fair" indicates few or no clouds below 12,000 feet with no
significant weather and/or obstructions to visibility.

* = STATION THAT DOES NOT REPORT PRECIPITATION /E.G. RAIN...SNOW...ETC/
    THUNDER OR FOG.

PAZ002>004-007>009-013>016-020>023-029>032-181700-
WESTERN PENNSYLVANIA

CITY           SKY/WX    TMP DP  RH WIND       PRES   REMARKS
ERIE           SUNNY     65  41  41 W12       30.05S
MEADVILLE      SUNNY     69  44  40 NW10      30.05F
FRANKLIN*      SUNNY     70  45  40 W10G20    30.07S
NEW CASTLE     FAIR      73  46  38 N10G16    30.06F
BEAVER COUNTY  NOT AVBL
BUTLER*        SUNNY     70  45  40 W8        30.08F
PITTSBURGH INT PTSUNNY   72  44  36 NW10      30.06F
PITTSBURGH     SUNNY     71  35  26 SW6       30.05F
INDIANA*       SUNNY     70  41  35 W9        30.09F
LATROBE        MOSUNNY   70  45  40 W7        30.08F
WASHINGTON CO* SUNNY     72  37  28 CALM      30.08F
$$

PAZ004>006-010>012-017>019-024>028-033>037-041-042-045-046-049>053-181700-
CENTRAL PENNSYLVANIA

CITY           SKY/WX    TMP DP  RH WIND       PRES   REMARKS
BRADFORD       SUNNY     67  42  40 NW18      30.04S
DUBOIS         MOSUNNY   71  44  37 W14       30.04F
CLEARFIELD     MOSUNNY   70  40  33 W12G25    30.04F
JOHNSTOWN      SUNNY     67  38  34 NW12      30.07F
ALTOONA        MOSUNNY   71  41  33 CALM      30.05F
STATE COLLEGE  SUNNY     72  39  30 W10       30.03F
WILLIAMSPORT   SUNNY     72  43  35 W13       29.98F
SELINSGROVE    SUNNY     71  51  49 SE10      30.01F
FT INDIANTOWN  SUNNY     74  40  29 VRB5      30.00F
CAPITAL CITY   SUNNY     74  41  30 NW5       30.01F
HARRISBURG     PTSUNNY   70  46  42 CALM      30.00F
YORK           SUNNY     74  44  34 W5        30.02F
$$

PAZ038>040-043-044-047-048-054-055-060>062-067>071-181700-
EASTERN PENNSYLVANIA

CITY           SKY/WX    TMP DP  RH WIND       PRES   REMARKS
SCRANTON       SUNNY     70  40  33 SW9G20    29.97F
MOUNT POCONO   SUNNY     67  37  33 NW10G24   30.00F
ALLENTOWN      SUNNY     73  44  35 W9        29.99F
QUAKERTOWN*    SUNNY     72  41  33 N6        30.01F
READING        SUNNY     74  43  32 MISG      30.00F
LANCASTER      SUNNY     72  46  39 VRB5      30.01F
COATESVILLE    SUNNY     72  45  37 W12       30.02F
POTTSTOWN      SUNNY     71  43  36 MISG      30.01F
BLUE BELL      SUNNY     73  45  35 W5        29.99F
DOYLESTOWN     SUNNY     72  43  35 NW8       29.99F
WILLOW GROVE   NOT AVBL
NORTH PHILA    SUNNY     76  37  24 VRB5      30.01F
PHILADELPHIA   PTSUNNY   72  46  39 SW7       30.00F
$$



USA.gov is the U.S. government's official web portal to all federal, state and local government web resources and services.